Stations météo

réclame
Mon MeteoGroup
Spangdahlem, Allemagne (10607): Température de l'air & dewpoint: 13.06.2019 18:00:00 - 19.06.2019 18:00:00 (CEST)Spangdahlem, Allemagne (10607): Vitesse du vent & gusts: 13.06.2019 18:00:00 - 19.06.2019 18:00:00 (CEST)Spangdahlem, Allemagne (10607): Direction du vent: 13.06.2019 18:00:00 - 19.06.2019 18:00:00 (CEST)Spangdahlem, Allemagne (10607): reduced air pressure: 13.06.2019 18:00:00 - 19.06.2019 18:00:00 (CEST)Spangdahlem, Allemagne (10607): visibility: 13.06.2019 18:00:00 - 19.06.2019 18:00:00 (CEST)Spangdahlem, Allemagne (10607): Quantités de précipitations: 13.06.2019 18:00:00 - 19.06.2019 18:00:00 (CEST)
Date & Time tt [°C] td [°C] ff [km/h] ff [knt] fx [km/h] fx [knt] dd ppp [hPa] vv [km] rr [mm]
19.06.2019 18:00:00 - - - - - - - - - -
19.06.2019 17:00:00 24,3 15,2 9 5 - - SW 1007,3 10 0,0
19.06.2019 16:00:00 26,0 15,7 13 7 - - SSW - 10 -
19.06.2019 15:00:00 24,7 16,1 9 5 - - SSW 1008,2 10 -
19.06.2019 14:00:00 22,8 15,4 9 5 - - SSE 1008,2 10 -
19.06.2019 13:00:00 23,3 15,1 18 10 - - SSW 1008,2 10 -
19.06.2019 12:00:00 22,1 14,2 15 8 - - WNW 1007,1 10 -
19.06.2019 11:00:00 21,4 13,6 15 8 - - WSW 1008,2 10 -
19.06.2019 10:00:00 23,5 13,4 21 11 - - SSW 1007,4 10 -
19.06.2019 09:00:00 21,0 14,9 9 5 - - SSW 1007,5 10 -
19.06.2019 08:00:00 18,7 14,0 11 6 - - E 1007,0 10 -
19.06.2019 07:00:00 16,6 13,5 11 6 - - ENE 1007,8 10 -
19.06.2019 06:00:00 15,5 13,0 8 4 - - ENE 1008,2 10 -
19.06.2019 05:00:00 15,0 13,0 9 5 - - ENE 1008,2 10 -
19.06.2019 04:00:00 16,3 13,2 5 3 - - ENE 1008,8 10 -
19.06.2019 03:00:00 - - - - - - - - - -
19.06.2019 02:00:00 - - - - - - - - - -
19.06.2019 01:00:00 - - - - - - - - - -
19.06.2019 00:00:00 19,5 13,4 0 0 - - N 1010,1 10 -
18.06.2019 23:00:00 - - - - - - - - - -
18.06.2019 22:00:00 23,2 13,4 5 3 - - W 1010,3 10 -
18.06.2019 21:00:00 24,4 12,7 8 4 - - W 1010,4 10 -
18.06.2019 20:00:00 24,7 12,9 5 3 - - WSW 1010,5 10 -
18.06.2019 19:00:00 25,7 12,9 11 6 - - SW 1011,0 10 -
18.06.2019 18:00:00 25,8 13,6 11 6 - - SSW 1011,0 10 -
18.06.2019 17:00:00 26,0 14,1 16 9 - - SSW 1011,7 10 -
18.06.2019 16:00:00 25,9 13,7 11 6 - - SSW 1012,0 10 -
18.06.2019 15:00:00 25,4 13,6 13 7 - - SSE 1012,5 10 -
18.06.2019 14:00:00 25,8 14,3 13 7 - - SSE 1012,2 10 -
18.06.2019 13:00:00 24,7 15,0 8 4 - - SE 1012,6 10 -
18.06.2019 12:00:00 23,7 14,7 9 5 - - E 1012,9 10 -
18.06.2019 11:00:00 23,3 14,3 0 0 - - N 1013,3 10 -
18.06.2019 10:00:00 22,2 14,6 11 6 - - E 1013,3 10 -
18.06.2019 09:00:00 19,8 13,9 5 3 - - ENE 1013,9 10 -
18.06.2019 08:00:00 17,0 12,5 0 0 - - N 1014,1 10 -
18.06.2019 07:00:00 13,3 11,3 0 0 - - N 1014,0 10 -
18.06.2019 06:00:00 13,5 10,5 0 0 - - N 1013,9 10 -
18.06.2019 05:00:00 12,9 10,3 0 0 - - N 1014,2 10 -
18.06.2019 04:00:00 14,4 10,6 0 0 - - N 1014,6 10 -
18.06.2019 03:00:00 12,8 10,3 0 0 - - N 1014,7 10 -
18.06.2019 02:00:00 15,7 10,0 0 0 - - N 1015,3 10 -
18.06.2019 01:00:00 17,3 9,9 5 3 - - NE 1015,4 10 -
18.06.2019 00:00:00 18,4 10,2 0 0 - - N 1015,4 10 -
17.06.2019 23:00:00 19,2 10,5 0 0 - - N 1015,4 10 -
17.06.2019 22:00:00 20,1 10,5 5 3 - - NE 1015,4 10 -
17.06.2019 21:00:00 21,3 11,0 5 3 - - NE 1015,6 10 -
17.06.2019 20:00:00 23,0 10,7 9 5 - - E 1015,9 10 -
17.06.2019 19:00:00 23,8 10,5 15 8 - - E 1016,1 10 -
17.06.2019 18:00:00 24,4 10,6 13 7 - - E 1016,4 10 -
17.06.2019 17:00:00 24,5 10,7 15 8 - - E 1016,8 10 -
17.06.2019 16:00:00 24,5 10,4 8 4 - - SE 1017,6 10 -
17.06.2019 15:00:00 22,4 9,9 9 5 - - E 1017,9 10 -
17.06.2019 14:00:00 21,8 10,9 5 3 - - SE 1018,3 10 -
17.06.2019 13:00:00 22,2 11,9 13 7 - - E 1018,5 10 -
17.06.2019 12:00:00 22,0 11,4 9 5 - - ESE 1018,8 10 -
17.06.2019 11:00:00 20,8 11,7 11 6 - - ENE 1019,2 10 -
17.06.2019 10:00:00 19,6 12,1 8 4 - - E 1019,5 10 -
17.06.2019 09:00:00 17,4 12,3 9 5 - - ENE 1019,8 10 -
17.06.2019 08:00:00 14,2 11,3 8 4 - - ENE 1020,1 10 -
17.06.2019 07:00:00 11,4 10,6 0 0 - - N 1020,3 10 -
17.06.2019 06:00:00 11,7 9,6 0 0 - - N 1020,1 10 -
17.06.2019 05:00:00 11,0 9,9 8 4 - - ENE 1020,6 10 -
17.06.2019 04:00:00 9,7 9,1 5 3 - - NE 1020,6 10 -
17.06.2019 03:00:00 11,9 10,0 0 0 - - N 1020,6 10 -
17.06.2019 02:00:00 11,7 10,3 0 0 - - N 1020,6 10 -
17.06.2019 01:00:00 13,9 10,7 0 0 - - N 1020,5 10 -
17.06.2019 00:00:00 14,9 10,7 0 0 - - N 1020,3 10 -
16.06.2019 23:00:00 15,7 11,1 0 0 - - N 1020,3 10 -
16.06.2019 22:00:00 16,9 10,9 0 0 - - N 1020,0 10 -
16.06.2019 21:00:00 18,5 10,6 0 0 - - N 1019,8 10 -
16.06.2019 20:00:00 18,9 10,7 9 5 - - SSW 1020,0 10 -
16.06.2019 19:00:00 19,9 10,0 11 6 - - WSW 1020,0 10 -
16.06.2019 18:00:00 19,5 10,7 9 5 - - S 1020,0 10 -
16.06.2019 17:00:00 19,6 10,6 8 4 - - W 1020,0 10 -
16.06.2019 16:00:00 19,5 11,0 18 10 - - WSW 1020,3 10 -
16.06.2019 15:00:00 18,6 9,9 15 8 - - SW 1020,3 10 -
16.06.2019 14:00:00 18,4 10,5 13 7 - - SW 1020,0 10 -
16.06.2019 13:00:00 18,5 10,3 16 9 - - SW 1019,8 10 -
16.06.2019 12:00:00 18,4 10,2 15 8 - - SW 1020,0 10 -
16.06.2019 11:00:00 18,6 10,7 15 8 - - S 1019,5 10 -
16.06.2019 10:00:00 17,5 10,4 11 6 - - WSW 1019,5 10 -
16.06.2019 09:00:00 16,0 10,7 8 4 - - SW 1019,2 10 -
16.06.2019 08:00:00 14,9 10,9 11 6 - - SW 1018,8 10 -
16.06.2019 07:00:00 13,8 10,8 8 4 - - SW 1018,6 10 -
16.06.2019 06:00:00 13,1 10,6 5 3 - - WSW 1018,3 10 -
16.06.2019 05:00:00 13,8 10,8 5 3 - - W 1017,8 10 -
16.06.2019 04:00:00 14,2 10,8 0 0 - - N 1017,8 10 -
16.06.2019 03:00:00 14,7 10,7 5 3 - - WSW 1017,5 10 -
16.06.2019 02:00:00 15,3 11,3 9 5 - - WSW 1017,1 10 -
16.06.2019 01:00:00 16,5 11,2 9 5 - - WSW 1017,0 10 -
16.06.2019 00:00:00 16,8 11,1 15 8 - - WSW 1016,4 10 -
15.06.2019 23:00:00 16,2 11,6 9 5 - - WSW 1015,9 10 -
15.06.2019 22:00:00 17,4 11,4 9 5 - - SW 1015,2 10 -
15.06.2019 21:00:00 19,0 10,5 13 7 - - SW 1014,9 10 -
15.06.2019 20:00:00 20,7 11,0 18 10 - - WSW 1014,4 10 -
15.06.2019 19:00:00 21,0 10,8 16 9 - - WSW 1014,4 10 -
15.06.2019 18:00:00 21,8 10,3 18 10 - - WSW 1014,4 10 -
15.06.2019 17:00:00 22,7 10,1 16 9 - - WSW 1014,2 10 -
15.06.2019 16:00:00 22,7 10,5 21 11 - - SW 1014,2 10 -
15.06.2019 15:00:00 21,8 11,5 22 12 - - WSW 1014,4 10 -
15.06.2019 14:00:00 21,5 12,6 28 15 - - SW 1014,0 10 -
15.06.2019 13:00:00 20,7 13,6 28 15 - - SW 1013,7 10 0,0
15.06.2019 12:00:00 19,4 14,2 22 12 - - SW 1013,5 10 -
15.06.2019 11:00:00 18,4 14,9 28 15 - - SW 1012,8 10 -
15.06.2019 10:00:00 16,3 14,8 22 12 - - SW 1012,5 10 -
15.06.2019 09:00:00 15,1 15,1 21 11 - - SSW 1011,5 10 0,5
15.06.2019 08:00:00 15,5 15,5 18 10 - - SW 1010,6 10 -
15.06.2019 07:00:00 15,0 15,0 15 8 - - SW 1010,0 10 0,0
15.06.2019 06:00:00 15,0 15,0 13 7 - - W 1009,6 10 0,3
15.06.2019 05:00:00 14,6 14,6 16 9 - - WSW 1009,1 10 -
15.06.2019 04:00:00 14,7 14,7 0 0 - - N 1007,8 10 -
15.06.2019 03:00:00 14,7 14,7 11 6 - - WSW 1009,1 10 -
15.06.2019 02:00:00 14,5 14,5 8 4 - - ENE 1009,1 10 -
15.06.2019 01:00:00 15,0 15,0 5 3 - - ENE 1009,5 10 -
15.06.2019 00:00:00 15,9 15,4 5 3 - - WNW 1010,6 10 1,0
14.06.2019 23:00:00 16,8 15,1 5 3 - - WSW 1012,0 10 0,0
14.06.2019 22:00:00 16,3 15,0 8 4 - - NW 1011,0 10 0,3
14.06.2019 21:00:00 17,3 14,4 8 4 - - E 1010,5 10 0,3
14.06.2019 20:00:00 20,2 11,1 5 3 - - ESE 1011,7 10 -
14.06.2019 19:00:00 21,3 11,3 0 0 - - N 1012,2 10 -
14.06.2019 18:00:00 22,2 10,7 16 9 - - SSE 1012,6 10 -
14.06.2019 17:00:00 22,6 10,4 11 6 - - S 1012,5 10 -
14.06.2019 16:00:00 23,1 11,2 15 8 - - S 1013,2 10 -
14.06.2019 15:00:00 23,1 10,2 24 13 - - S 1013,5 10 -
14.06.2019 14:00:00 23,5 10,2 26 14 - - SSW 1013,9 10 -
14.06.2019 13:00:00 23,1 10,8 16 9 - - S 1013,9 10 -
14.06.2019 12:00:00 20,5 10,0 0 0 - - N 1014,3 10 -
14.06.2019 11:00:00 20,2 10,3 13 7 - - SW 1014,7 10 -
14.06.2019 10:00:00 19,2 11,2 9 5 - - WSW 1014,5 10 -
14.06.2019 09:00:00 17,6 9,5 5 3 - - SSW 1013,7 10 -
14.06.2019 08:00:00 16,2 9,4 5 3 - - ENE 1013,1 10 -
14.06.2019 07:00:00 12,7 10,1 8 4 - - ENE 1012,8 10 -
14.06.2019 06:00:00 10,4 8,7 8 4 - - NE 1012,6 10 -
14.06.2019 05:00:00 10,9 8,5 5 3 - - ENE 1012,1 10 -
14.06.2019 04:00:00 10,2 8,8 5 3 - - NE 1012,1 10 -
14.06.2019 03:00:00 10,7 9,3 5 3 - - N 1012,5 10 -
14.06.2019 02:00:00 10,6 10,4 5 3 - - ENE 1012,8 10 -
14.06.2019 01:00:00 11,6 11,0 8 4 - - NE 1013,6 10 -
14.06.2019 00:00:00 10,9 10,7 13 7 - - ENE 1013,4 10 -
13.06.2019 23:00:00 11,6 11,6 11 6 - - ENE 1013,6 10 -
13.06.2019 22:00:00 11,6 11,4 11 6 - - ENE 1013,1 10 -
13.06.2019 21:00:00 13,1 12,5 9 5 - - E 1013,1 10 -
13.06.2019 20:00:00 14,0 12,7 9 5 - - E 1013,4 10 -
13.06.2019 19:00:00 13,8 11,1 5 3 61 33 SSW 1014,3 10 2,8
13.06.2019 18:00:00 16,0 11,0 37 20 - - WSW 1014,5 10 -

tt = Température de l'air
td = dewpoint
ff = Vitesse du vent
fx = gusts
dd = Direction du vent
ppp = reduced air pressure
vv = visibility
rr = Quantités de précipitations

stations d'obs. à proximité